Theta_e
355 352 350 351 349 349 347 342 318 328 324 315 317 320 318 332 331 327 329 337 328 337 336 336 337 337 337 331 331 334 336 326 327 314 313 335 348 350 353 354 355 356 356 356 356 356 357 360 362 364 363 364 364 365 365 364 364 364 364 364 361 363 364 364 363 363 363 363 362 361 361 361 361 361 361 361 360 361 361 361 361 361 362 362 359 360 361 361 363 362 362 362 363 363 363 363 362
351 346 347 348 345 346 333 343 322 320 321 315 318 323 324 328 329 326 327 333 332 334 338 336 338 339 340 338 336 335 332 336 337 335 339 345 350 351 354 355 355 355 356 356 356 354 354 357 361 363 364 365 365 365 365 364 364 364 364 363 363 364 364 363 363 363 362 362 362 362 362 361 361 361 361 360 360 361 360 361 362 363 360 361 361 361 361 361 361 361 362 362 363 363 363 363 362
345 344 345 348 346 343 339 339 315 318 313 309 316 322 330 326 325 329 330 330 334 335 338 339 339 337 335 335 330 329 324 339 339 340 339 348 343 347 354 356 356 357 356 357 355 352 352 356 360 362 363 365 365 365 364 364 364 364 364 365 364 364 364 364 363 362 362 363 362 362 361 361 360 361 361 360 361 361 361 360 362 362 361 361 361 362 360 360 361 362 362 361 363 363 363 361 362
346 348 349 345 336 343 331 329 321 316 313 316 315 325 326 326 325 330 333 336 335 337 336 335 332 341 333 327 329 335 332 333 340 340 339 342 345 351 354 356 358 357 357 357 357 356 355 359 362 364 365 365 365 365 365 364 364 364 365 365 365 364 364 363 362 362 362 362 361 361 361 360 359 360 359 360 361 360 361 360 359 360 361 361 361 361 359 361 361 362 361 361 363 361 362 362 362
350 351 354 344 340 330 328 324 322 320 313 318 314 325 327 330 329 333 338 343 337 336 336 335 333 340 338 334 334 328 330 338 340 343 342 347 353 353 355 356 356 355 355 357 358 357 358 361 363 365 365 365 365 365 364 364 364 365 365 366 365 364 363 362 362 363 362 362 362 362 361 361 360 360 361 361 360 359 360 361 361 361 360 361 361 360 360 361 362 362 361 361 361 361 362 362 363
349 347 351 347 334 344 333 320 318 317 324 328 322 324 329 333 333 335 338 336 341 343 342 335 331 330 330 333 336 332 339 331 340 342 345 347 351 353 354 356 353 353 355 357 358 358 359 364 365 366 365 366 366 364 364 364 364 365 364 365 365 365 364 364 363 363 363 362 361 361 361 361 361 361 359 358 360 359 360 361 361 360 361 360 361 360 362 361 362 361 361 361 362 362 362 362 363
343 345 347 344 342 340 320 318 317 320 327 331 328 329 333 333 337 336 333 335 338 335 337 332 335 333 328 335 339 342 345 345 341 342 348 350 352 353 354 352 351 352 356 358 359 360 361 365 366 366 366 366 365 365 364 365 365 365 365 363 365 364 364 364 363 362 362 362 362 362 362 362 361 361 360 360 358 358 359 360 360 361 360 360 360 361 361 361 362 362 362 361 362 362 362 362 362
351 341 341 330 325 328 319 321 321 324 327 332 333 331 333 335 339 334 332 331 330 330 335 336 337 332 330 340 330 340 345 347 345 347 350 350 351 352 353 352 351 353 355 357 359 360 367 365 366 366 366 366 365 365 365 365 365 365 365 364 364 364 363 364 364 363 362 362 361 363 362 362 362 361 361 360 358 358 359 360 360 359 360 361 361 360 361 361 360 362 362 362 362 362 361 360 360
350 344 345 331 321 325 320 318 322 330 329 332 332 336 339 337 336 334 333 336 333 333 332 334 335 328 330 334 333 341 342 347 348 350 349 349 350 352 353 352 352 352 354 357 360 362 362 365 365 365 365 365 365 366 366 365 365 365 364 363 364 363 364 363 363 362 362 362 363 363 362 362 362 362 360 359 357 356 358 359 359 359 360 360 361 360 361 361 361 362 362 362 361 361 361 361 360
345 343 329 327 325 316 319 321 319 325 327 332 331 333 335 337 335 338 332 334 336 333 334 337 337 330 334 330 333 338 339 347 348 348 348 349 350 353 352 352 353 353 355 358 361 361 362 367 366 365 365 365 365 364 365 365 365 364 364 363 363 362 363 363 362 363 362 362 363 363 362 362 362 362 361 361 358 356 357 359 360 360 361 361 361 361 361 361 362 362 361 361 361 361 360 358 359
334 342 341 324 319 317 316 319 322 325 327 332 333 337 335 337 337 337 335 335 340 332 335 337 332 332 333 332 334 343 346 347 346 344 348 349 351 351 351 353 355 356 356 358 359 361 361 363 367 365 366 365 365 365 365 365 364 364 363 363 363 363 363 362 362 362 363 362 362 363 362 362 362 362 361 360 360 358 358 359 360 361 361 361 361 362 361 363 362 362 362 361 361 362 362 361 359
331 332 333 320 318 316 318 318 321 324 329 330 329 335 339 337 337 334 332 330 332 332 332 337 331 336 330 331 332 340 344 344 345 346 348 350 350 351 353 354 355 356 357 358 360 361 362 362 363 366 365 365 365 365 365 365 365 363 363 363 363 362 362 362 362 363 362 362 363 362 363 362 362 362 362 361 361 359 357 358 358 360 361 361 362 363 363 362 362 363 363 363 363 363 363 362 360
334 335 327 321 319 321 322 322 322 325 326 327 331 337 344 337 333 337 338 338 335 331 333 338 338 337 327 330 337 341 341 344 347 349 349 350 351 352 352 353 355 357 359 360 360 360 361 361 362 362 363 365 365 365 365 365 363 363 363 363 362 362 363 362 363 363 363 363 363 363 363 362 363 363 362 362 360 360 357 357 358 360 360 361 362 362 362 362 363 364 363 363 363 364 363 363 361
335 336 329 318 330 324 322 321 324 321 322 330 336 339 339 335 337 338 340 334 336 332 336 339 339 337 331 333 334 335 339 346 348 348 348 350 352 351 351 354 356 357 358 358 358 359 360 361 361 361 361 361 361 363 364 364 363 363 363 363 362 362 362 363 363 363 363 363 363 363 363 363 362 363 362 363 362 362 361 359 360 360 360 362 363 364 363 363 363 363 363 363 363 364 363 363 362
338 342 332 326 323 324 325 320 321 323 321 332 336 338 337 339 340 340 340 334 334 348 339 343 339 334 326 330 329 334 340 346 348 349 349 350 351 350 352 354 355 355 356 357 358 358 358 358 359 359 360 360 359 358 358 360 363 363 362 362 363 362 363 363 363 363 363 363 363 363 363 363 364 364 363 362 363 363 362 361 361 361 362 362 362 363 363 364 364 364 363 363 364 363 362 362 361
344 340 332 322 321 320 324 323 326 325 324 335 338 341 338 340 342 339 341 345 343 349 341 332 340 335 335 333 334 339 344 346 348 348 348 348 350 351 351 351 352 353 354 355 355 356 356 356 358 358 359 358 358 357 358 358 361 362 362 362 362 363 363 363 363 362 362 363 362 363 363 362 363 361 364 360 363 363 363 360 362 363 363 362 363 363 364 364 364 364 364 364 364 363 363 363 363
351 340 325 323 319 322 325 326 329 321 332 334 341 339 334 335 342 344 350 346 340 339 345 343 336 341 336 337 340 343 345 348 349 346 346 346 347 347 348 349 350 351 353 353 352 353 354 355 357 357 358 358 357 357 357 358 359 362 361 361 362 363 363 363 363 363 363 363 362 363 363 358 358 358 358 358 363 361 361 361 363 363 363 363 363 363 364 364 364 364 364 363 363 363 362 362 362
343 329 323 319 323 323 329 327 333 337 331 334 337 340 336 333 340 344 348 347 348 344 339 338 338 339 340 341 343 344 345 345 345 344 344 344 346 345 345 346 347 347 349 349 351 352 354 356 356 357 357 357 357 357 358 359 359 360 357 358 358 359 361 362 361 360 364 360 364 361 360 359 357 358 359 363 361 361 360 363 363 363 363 363 363 363 364 364 364 364 363 363 363 363 362 359 360
332 329 327 320 326 328 335 334 340 335 332 336 338 339 339 336 341 342 338 338 339 337 336 337 334 336 339 341 342 343 343 343 343 343 343 343 343 343 344 346 346 347 348 349 351 354 355 355 357 358 357 357 357 357 358 359 358 357 356 357 359 361 361 362 359 360 357 358 358 359 360 358 359 358 359 362 362 364 362 363 364 364 363 363 363 363 363 363 364 364 363 363 364 364 360 354 356
338 331 322 323 330 332 339 338 337 342 339 337 336 339 340 341 342 344 337 335 339 332 331 331 331 332 335 338 340 341 342 341 343 342 342 343 344 344 345 345 346 348 349 351 353 356 356 355 357 358 358 357 356 356 357 356 356 356 355 355 356 357 357 359 357 358 358 357 357 357 358 358 358 358 362 364 364 359 359 363 364 364 365 364 364 363 362 362 362 363 363 363 364 364 358 355 355
339 333 327 329 331 331 336 340 340 341 341 338 338 340 338 341 343 343 338 332 335 338 339 332 331 333 335 337 338 340 339 340 341 343 343 344 345 347 347 347 347 348 350 353 354 354 355 356 356 357 358 358 356 356 355 355 356 355 354 354 355 356 356 357 358 358 358 358 358 359 358 359 359 358 357 358 357 358 357 357 358 358 358 358 363 356 357 360 361 358 359 362 359 360 359 359 354
334 331 334 331 335 331 338 338 343 341 342 339 339 336 336 346 345 341 338 329 328 334 337 335 335 336 335 336 338 339 339 339 341 342 343 344 344 344 347 348 350 350 351 350 351 354 355 356 357 357 357 357 357 355 355 358 358 354 353 354 355 356 357 357 357 358 358 359 358 360 358 358 358 357 358 356 357 357 356 356 357 358 358 358 366 357 356 358 357 357 358 358 359 359 359 358 354
326 332 332 333 335 333 337 339 340 342 340 337 337 341 342 341 339 343 343 338 341 347 342 338 337 338 338 338 338 338 339 339 341 341 342 343 344 345 347 347 347 347 349 349 352 354 356 356 357 357 355 357 357 356 356 358 355 355 355 356 355 355 357 357 357 358 359 360 361 361 359 356 356 356 357 356 356 356 355 355 356 358 358 357 361 359 357 358 358 357 357 357 358 359 358 356 352
334 325 332 330 334 333 339 339 341 341 341 338 342 344 340 340 333 345 340 345 348 350 345 338 339 339 339 337 337 338 339 339 339 342 343 343 344 346 347 346 347 348 347 350 351 354 356 354 356 356 355 357 356 356 356 357 358 358 358 360 357 361 360 357 358 358 360 360 362 360 360 356 355 355 356 356 357 358 357 356 356 357 358 357 359 359 358 359 358 358 357 356 357 356 347 343 344
328 328 332 332 331 334 340 340 341 342 342 341 341 338 339 343 338 341 340 344 346 347 342 340 339 339 338 337 336 337 338 338 338 340 342 343 345 346 346 346 347 346 346 349 351 354 355 356 355 355 356 357 356 356 357 359 359 358 357 356 355 362 355 357 358 359 358 359 362 362 362 357 355 355 354 356 356 357 358 354 354 355 356 356 357 357 356 356 357 357 356 357 358 351 347 344 345
333 332 332 331 329 335 339 339 340 341 340 340 336 335 340 343 344 340 342 343 346 347 341 339 338 337 336 337 337 336 336 337 338 338 337 339 343 343 344 344 345 343 346 349 350 352 354 358 355 355 357 356 358 359 357 356 355 354 354 355 357 360 355 356 358 358 358 359 360 361 364 363 355 354 353 355 355 355 356 357 355 353 355 356 356 355 355 355 354 355 357 356 351 355 349 352 352
336 332 331 330 331 335 339 337 340 340 340 339 334 335 338 342 341 329 345 343 343 342 339 338 337 336 336 337 337 337 337 337 337 338 337 337 339 339 341 342 342 342 348 348 349 351 354 356 355 357 357 361 356 355 355 355 357 354 356 356 357 355 355 357 360 358 358 359 360 361 364 363 361 357 357 355 354 354 355 358 357 355 354 355 356 354 358 357 356 356 359 356 355 359 353 353 357
332 329 330 330 333 335 338 338 337 339 337 343 339 336 340 341 337 331 339 341 342 337 336 337 336 335 335 336 337 337 337 337 337 336 334 335 335 337 339 340 341 342 347 348 349 351 353 354 355 356 357 356 353 352 355 353 354 356 356 353 352 353 355 356 357 356 361 358 359 361 362 360 363 357 355 353 353 352 353 356 357 356 352 353 353 353 355 358 361 361 363 359 360 363 357 357 363
330 330 323 325 333 332 336 335 337 338 335 341 340 334 331 333 330 338 340 342 341 338 336 336 335 335 335 335 336 336 335 336 336 334 334 334 335 339 339 341 341 340 345 349 350 352 352 353 354 354 355 355 351 351 352 353 353 355 354 352 352 354 355 355 354 356 358 361 360 362 360 358 359 356 354 355 361 353 353 353 355 357 358 356 356 358 358 363 362 361 361 364 361 359 354 356 362
324 327 326 322 328 328 334 337 337 337 338 341 338 315 323 330 336 337 341 343 340 336 336 334 334 334 334 334 334 335 336 335 335 333 333 334 336 338 338 340 341 341 345 348 350 351 353 353 355 354 355 354 352 352 352 352 352 353 354 353 355 352 353 353 353 354 359 360 361 363 360 360 361 360 354 354 354 353 352 353 351 353 359 359 360 362 362 364 361 358 358 357 363 357 355 355 353
311 322 322 317 321 320 330 333 336 334 339 340 336 315 319 331 335 339 344 341 338 336 333 332 333 333 333 333 334 334 334 334 334 334 334 335 336 337 338 339 339 344 346 346 347 350 352 352 353 353 356 355 355 352 352 351 352 353 353 353 353 351 351 352 353 355 359 360 362 362 363 365 365 364 358 354 355 355 354 353 355 358 360 362 362 362 361 362 361 358 360 356 356 357 352 359 353
314 313 310 315 318 321 327 334 333 328 334 342 330 318 321 330 336 340 341 342 340 337 334 332 332 332 332 332 333 333 333 334 334 335 335 336 336 336 337 337 342 344 344 345 347 350 350 351 353 353 355 354 352 352 351 353 352 351 353 356 352 351 350 352 353 357 359 359 360 361 362 364 364 366 368 367 359 357 356 357 359 360 362 363 365 364 365 361 361 361 362 358 356 358 360 353 359
310 310 311 312 319 318 324 329 332 335 334 335 333 320 325 327 336 340 341 341 339 334 339 332 332 332 331 331 332 332 332 333 333 334 334 335 336 336 336 338 342 342 343 343 346 348 348 351 353 352 353 353 352 353 352 352 351 350 353 355 352 351 351 352 354 357 357 357 359 361 363 367 366 368 367 368 364 358 357 358 360 363 366 364 364 362 360 362 361 360 363 366 360 359 356 353 350
304 311 307 314 316 318 316 326 333 334 331 326 332 324 326 333 334 338 339 339 337 334 335 336 339 331 330 331 332 331 331 331 330 332 333 335 336 336 336 345 342 341 342 344 347 347 348 350 349 350 352 353 354 355 355 353 353 354 353 353 355 351 352 353 354 355 355 357 359 360 364 366 368 367 366 367 362 362 359 358 359 363 365 364 361 360 358 359 358 359 362 364 363 362 358 356 348
303 306 306 309 317 319 318 320 327 330 330 327 326 326 326 329 334 338 338 340 339 334 336 338 334 339 332 330 331 330 331 330 331 333 335 336 337 337 338 341 340 341 342 345 346 346 348 348 350 353 352 353 355 356 356 355 354 354 354 354 354 351 350 352 354 354 356 358 359 363 365 367 367 365 366 367 365 360 357 360 361 363 364 360 358 357 358 362 362 359 360 359 365 362 358 358 352
309 311 308 309 311 316 317 325 331 332 325 323 324 322 326 329 332 335 338 339 339 336 338 338 338 335 336 331 330 331 331 331 333 334 335 336 337 337 338 338 340 340 342 345 346 345 345 348 349 351 351 354 356 357 356 353 353 352 349 353 354 355 353 355 356 355 356 358 362 364 364 365 367 366 365 367 368 364 359 360 361 364 362 359 357 355 355 356 359 360 360 361 358 361 362 361 355
309 308 307 308 311 314 323 325 331 332 323 322 325 327 327 328 331 333 335 338 338 335 334 336 338 337 335 337 330 331 332 332 334 334 335 336 337 337 338 338 339 340 343 345 344 344 347 347 349 349 352 355 354 353 353 351 349 348 350 351 352 353 351 354 355 356 358 360 363 364 364 364 366 365 366 364 365 369 362 361 360 361 361 360 358 357 359 359 361 362 364 363 357 355 356 357 353
306 305 306 305 308 316 322 323 329 329 321 319 326 327 325 327 331 335 339 336 334 335 334 333 338 339 337 335 338 331 332 334 334 333 335 336 336 338 338 337 342 340 343 344 343 343 347 348 348 350 352 353 354 353 353 353 352 350 348 348 352 354 352 352 352 354 357 361 363 364 364 365 365 364 366 365 364 362 363 363 361 360 360 359 358 361 360 366 362 360 362 359 361 355 352 357 354
306 304 304 304 310 320 324 324 326 326 323 320 326 323 324 326 328 333 335 334 335 337 336 333 335 336 337 338 336 336 331 331 332 333 334 335 336 338 338 338 340 342 343 343 342 344 346 346 349 351 352 353 353 355 353 352 354 354 351 352 350 353 354 354 353 357 360 361 363 363 364 364 365 365 365 368 364 364 365 360 359 361 363 363 358 357 359 363 361 360 359 356 355 359 356 361 355
303 303 301 302 315 316 311 319 324 325 323 321 324 321 322 326 329 331 335 334 335 339 341 341 338 336 336 339 339 339 331 331 330 332 332 335 336 336 337 337 339 340 342 342 342 343 346 347 349 351 351 352 352 355 357 354 356 353 355 352 353 352 351 357 356 358 358 361 361 366 365 364 365 365 366 366 364 363 364 360 361 359 363 364 361 360 359 358 361 363 361 362 358 351 348 353 358
304 305 304 304 309 314 318 317 321 323 325 327 324 320 320 323 323 326 333 337 335 337 339 342 344 346 340 341 343 340 339 331 330 332 333 333 335 335 336 338 339 339 340 342 342 344 348 347 351 351 351 352 352 356 358 354 359 352 360 355 356 356 355 353 353 354 355 358 360 362 363 364 364 363 363 363 364 365 366 364 362 361 363 362 362 358 358 360 361 360 360 360 357 352 349 351 358
299 305 306 308 311 314 318 319 318 313 315 323 320 309 311 321 324 325 330 330 332 335 333 335 339 341 341 338 337 339 340 340 332 333 333 334 335 335 337 338 339 339 340 342 344 344 348 348 352 350 351 353 353 353 356 355 356 355 352 349 348 347 346 348 348 350 352 355 357 361 363 364 364 362 362 363 364 366 364 364 364 364 363 362 362 361 360 361 357 357 360 362 359 358 356 353 354
299 301 309 310 311 312 315 316 315 309 308 316 322 308 306 320 320 324 326 326 329 334 333 335 337 339 339 341 337 337 339 340 335 334 333 334 335 335 337 337 339 340 341 342 345 344 348 349 352 351 352 353 353 354 357 359 356 358 355 351 351 348 347 349 350 353 354 355 356 358 360 361 361 360 362 363 364 366 364 365 363 363 363 363 368 360 359 358 358 361 362 359 359 364 358 350 350
298 308 310 310 311 312 311 311 309 306 319 319 319 314 309 309 316 323 326 326 327 328 331 333 336 336 337 340 341 337 340 340 336 335 333 334 335 335 336 338 339 341 342 343 344 346 348 349 350 352 354 354 353 354 358 357 357 358 357 355 355 352 350 351 351 351 355 357 355 357 359 359 360 360 361 362 364 363 365 363 363 363 365 362 366 361 359 358 359 364 363 365 365 363 357 355 355
303 309 311 311 312 312 313 310 307 309 306 307 312 315 307 307 315 323 325 322 325 326 331 333 334 335 336 338 342 341 341 343 337 337 334 334 335 335 338 338 340 342 342 343 344 347 349 349 351 352 354 354 353 355 357 357 359 358 357 356 354 355 354 354 358 356 355 356 354 356 356 357 358 361 361 362 365 364 368 364 365 363 364 363 369 364 359 361 364 361 360 361 359 362 359 359 359
309 311 313 312 309 311 313 307 307 307 305 301 308 312 304 306 313 316 322 321 322 326 327 332 334 334 335 337 342 342 341 342 341 338 336 335 336 337 338 339 339 341 342 344 345 349 350 350 351 352 353 354 354 355 358 357 358 360 356 355 353 354 355 354 354 353 353 353 354 354 355 355 359 359 362 364 365 364 365 365 365 365 363 362 361 360 360 361 364 362 362 362 361 361 367 361 359
315 312 310 306 305 305 308 307 308 308 298 300 309 311 309 300 310 314 316 319 322 326 328 333 335 335 336 337 339 340 340 341 341 339 338 337 337 339 338 338 338 340 342 343 346 350 351 350 351 351 352 355 354 354 358 356 356 358 356 356 352 354 351 351 352 354 352 353 352 354 355 354 358 358 363 363 365 365 365 367 364 364 363 366 362 360 361 362 364 360 360 362 361 362 358 359 361
310 306 302 301 300 303 301 305 307 299 294 302 307 307 311 301 305 315 321 325 327 325 326 329 332 333 334 336 338 339 340 342 342 339 339 342 336 339 339 337 338 339 341 341 346 350 351 350 352 350 352 355 353 354 358 358 357 357 355 357 352 355 352 352 350 353 352 352 353 355 355 355 356 360 360 362 363 364 364 364 365 363 362 364 362 365 361 359 360 362 360 360 362 364 361 360 359
308 303 302 296 296 296 293 298 295 294 292 302 306 308 309 308 312 317 322 325 327 329 329 330 331 332 332 335 337 339 342 344 344 342 340 341 340 337 338 338 339 338 340 340 345 350 351 350 352 351 351 355 354 354 357 358 356 356 354 356 352 356 351 352 352 353 353 354 355 355 355 354 356 355 358 359 360 362 364 362 361 360 359 361 363 363 360 362 361 359 361 364 361 362 363 362 361
303 300 300 296 293 291 289 293 296 296 301 304 304 308 308 312 315 320 321 325 328 330 331 332 333 332 332 333 337 341 343 345 345 344 342 341 341 341 340 339 339 343 339 340 345 348 351 351 352 352 351 355 355 354 357 357 356 356 355 355 355 358 354 352 355 353 355 355 356 356 356 354 356 354 357 357 359 360 363 365 361 364 363 366 365 364 365 363 361 360 365 363 362 364 363 362 362
302 307 302 298 297 295 290 292 289 292 294 301 306 302 304 307 309 323 324 328 330 332 332 333 334 335 335 336 338 340 342 343 344 343 342 342 341 342 343 343 340 344 341 339 344 348 351 351 352 353 351 355 355 353 356 356 356 356 356 355 356 358 355 355 355 355 355 355 357 356 355 356 356 358 357 358 360 359 360 363 362 364 367 367 367 366 367 365 362 360 364 362 359 365 365 364 361
306 307 307 301 297 303 293 296 296 296 295 296 302 304 311 310 322 324 327 328 328 328 329 331 331 334 336 336 337 340 341 342 343 343 342 342 343 342 346 345 343 343 348 343 344 347 350 352 352 354 352 354 356 356 356 356 355 355 356 355 357 358 359 358 357 359 356 357 355 355 355 354 356 356 360 359 363 360 360 361 364 366 367 366 366 363 364 364 363 362 362 364 360 367 364 364 363
303 304 298 300 308 305 302 305 303 304 299 295 309 308 311 317 319 325 327 324 325 328 327 328 330 331 335 335 336 340 341 340 341 342 342 342 345 344 344 344 343 344 346 347 347 349 352 353 352 354 353 355 357 357 356 357 355 354 355 356 356 357 357 356 356 356 358 357 355 356 356 358 356 356 358 360 360 361 361 360 361 364 365 365 364 364 363 363 364 363 363 364 361 362 362 363 361
303 299 301 309 310 309 303 295 298 295 290 296 308 305 306 308 303 322 322 320 322 326 328 331 331 332 332 333 335 339 340 341 344 345 346 346 347 347 347 346 347 344 349 349 348 350 354 355 354 355 355 353 356 358 357 358 355 353 353 355 356 357 356 356 356 355 354 354 355 356 355 356 357 358 356 358 359 362 362 366 358 360 363 363 363 363 363 364 362 363 362 363 364 363 362 367 365
305 303 311 301 296 295 302 297 290 290 290 292 304 307 308 308 308 316 317 319 320 323 327 329 330 331 334 334 336 338 339 340 343 343 344 344 344 346 349 349 352 351 352 349 348 350 352 355 357 357 356 356 357 359 359 359 358 355 355 355 355 356 356 355 354 354 352 351 353 352 353 354 356 356 354 354 357 357 361 362 358 361 361 362 362 361 363 363 363 362 362 363 362 362 360 361 362
311 311 304 308 300 301 298 298 299 297 293 295 301 304 299 312 312 317 318 320 322 322 325 327 330 332 334 335 337 338 338 338 340 342 343 345 346 349 351 351 349 350 350 351 351 350 350 353 358 359 359 358 357 358 359 358 358 355 354 354 355 355 355 355 353 353 351 349 350 351 350 353 353 355 355 360 356 356 359 359 361 359 360 359 361 361 362 362 363 362 361 361 360 360 358 356 358
301 299 297 300 304 304 300 304 297 295 293 294 296 294 302 312 318 320 320 321 323 324 324 327 329 331 333 335 335 336 338 339 342 342 343 343 342 343 347 352 351 350 351 351 352 350 352 354 355 356 356 357 358 357 358 358 358 356 354 353 353 354 354 355 354 353 351 350 349 351 350 350 353 352 354 354 356 356 357 358 357 357 355 357 357 356 360 360 360 359 359 358 357 358 357 356 357
301 298 297 298 297 296 292 291 303 299 296 290 294 293 304 315 324 322 322 323 325 328 326 327 328 331 332 334 336 337 337 339 339 342 341 345 350 351 353 352 352 350 351 350 352 352 354 351 351 351 352 353 355 359 356 362 362 358 354 353 353 354 354 354 353 352 351 350 349 350 349 349 350 351 351 352 352 356 357 357 355 355 355 354 356 355 356 358 357 358 357 360 359 359 356 355 356
Wind_Speed
6 4 3 4 4 3 2 1 2 0 0 1 1 0 1 1 3 2 2 2 1 6 2 5 9 4 2 7 13 11 12 4 2 5 5 4 10 13 10 14 13 12 11 8 8 7 9 10 13 13 12 11 13 13 13 12 12 12 13 13 15 16 14 14 15 14 14 14 15 15 14 13 13 13 13 13 14 14 15 15 15 16 16 16 17 17 16 16 15 14 15 15 16 17 17 17 18
1 4 4 5 4 2 2 1 0 1 0 1 2 2 2 1 3 4 4 1 2 2 9 10 9 8 10 10 8 16 15 9 10 9 8 11 14 11 15 14 14 15 11 9 8 7 6 7 13 14 13 13 14 13 12 12 12 12 12 15 16 15 14 14 14 14 15 15 15 14 14 13 13 13 13 14 14 14 15 14 14 15 16 16 17 16 16 16 16 16 16 16 16 17 18 18 18
4 4 4 4 3 3 1 0 1 0 1 1 1 1 1 2 5 3 9 3 3 11 4 10 10 8 13 13 15 12 5 7 20 14 11 14 13 10 15 15 13 14 14 10 10 8 6 8 11 11 14 15 13 13 12 12 12 12 13 15 16 15 14 13 14 14 15 15 15 14 13 13 12 13 15 16 14 14 15 15 15 15 15 14 15 15 15 16 16 16 16 16 17 18 18 17 17
3 3 1 3 2 2 1 1 1 0 1 1 1 3 2 4 7 4 7 10 11 10 6 7 9 3 17 18 14 18 11 7 13 16 10 11 9 14 15 15 14 12 11 9 9 8 7 9 12 12 15 14 13 13 12 12 12 13 14 16 16 14 14 14 14 14 14 15 14 13 13 13 14 13 16 14 15 14 14 15 16 16 15 15 14 15 15 14 14 16 16 17 17 19 17 16 16
4 2 1 3 1 2 1 1 0 1 1 1 1 2 4 5 7 6 6 5 7 7 9 8 9 6 12 11 7 6 9 13 13 9 10 10 15 15 15 15 13 12 12 11 10 8 8 14 13 14 15 14 14 13 12 12 12 14 14 15 15 14 14 15 14 13 14 15 15 14 13 14 13 14 16 15 16 16 14 16 15 14 15 16 15 16 16 15 15 16 16 17 17 18 16 15 15
3 3 4 4 2 1 0 2 1 2 3 4 1 2 5 4 6 11 5 6 1 3 4 7 10 11 10 11 7 12 13 9 11 11 14 14 19 18 18 14 13 13 12 11 10 8 8 15 15 14 14 15 14 13 12 12 13 14 15 15 14 14 14 14 14 13 13 14 14 14 14 14 13 13 15 18 19 17 15 15 15 15 15 15 15 15 15 16 15 16 16 17 16 17 16 14 13
2 3 2 2 2 1 1 1 3 2 1 0 1 2 3 3 6 6 8 5 4 10 16 14 18 17 13 9 13 9 10 14 11 13 13 18 19 19 17 13 13 14 13 10 9 9 11 14 14 14 15 15 14 13 12 12 13 14 15 15 14 14 14 14 13 13 13 14 14 14 14 13 13 14 14 18 18 19 17 16 15 16 17 16 16 15 15 15 15 15 16 17 17 17 15 13 12
4 0 2 2 1 1 2 2 3 4 2 1 4 5 4 3 7 4 6 4 7 6 5 10 7 14 14 7 11 14 14 10 17 19 21 18 19 18 15 12 14 13 12 10 8 7 13 14 14 13 14 15 14 14 13 13 14 14 14 14 14 13 14 13 13 13 13 14 15 14 13 14 13 14 14 16 21 20 18 14 14 16 16 16 17 16 16 16 16 16 16 16 16 16 15 14 11
1 3 1 3 1 1 3 4 1 1 1 3 4 2 2 5 6 2 4 3 7 12 15 16 9 17 10 14 9 10 15 19 20 22 21 20 16 16 12 14 14 13 13 10 9 8 9 14 14 14 14 15 15 14 14 14 14 14 15 14 13 14 13 12 12 13 14 14 14 14 14 14 14 15 15 17 19 21 20 15 12 14 18 19 17 17 17 16 16 16 16 16 15 14 13 13 12
2 2 1 1 0 3 2 2 0 1 2 5 4 3 3 4 3 5 5 6 5 9 12 12 10 20 16 15 14 13 14 22 21 20 19 19 16 10 16 16 16 16 13 11 9 9 8 15 14 14 14 15 15 15 14 14 14 14 14 14 14 14 14 13 13 13 14 14 14 14 14 14 15 15 15 16 18 20 21 17 14 13 15 18 18 17 16 16 16 16 16 15 15 14 14 13 16
2 3 1 1 2 2 1 1 1 2 2 4 5 6 4 5 5 4 4 1 3 14 17 16 16 18 14 10 10 13 21 20 20 20 18 18 20 16 16 16 14 14 14 13 10 8 9 9 16 15 15 15 15 15 14 14 14 14 14 14 14 14 14 14 14 14 14 14 13 14 14 15 15 15 16 16 18 21 20 20 17 15 16 17 16 16 16 15 15 15 15 15 14 14 14 13 14
1 1 0 2 3 1 2 1 3 3 2 6 5 4 2 1 6 2 4 2 9 14 12 6 9 16 16 13 8 15 19 19 19 18 16 16 13 16 17 13 15 14 15 13 11 9 8 8 8 13 15 15 15 14 13 14 14 14 14 14 14 14 14 14 14 15 15 14 13 13 14 14 15 15 16 16 16 20 21 21 17 15 15 15 15 15 14 15 16 16 15 15 14 13 12 13 13
3 1 1 0 3 2 1 2 3 6 4 4 4 2 2 3 3 3 1 4 5 11 12 11 16 13 15 12 9 16 18 16 15 15 12 10 14 15 15 14 15 15 12 13 12 10 9 7 7 7 11 16 14 14 14 13 13 14 13 14 13 13 13 13 14 14 15 15 14 13 13 14 15 15 16 16 17 18 21 22 21 18 15 14 16 16 15 15 15 14 14 14 13 11 11 12 13
3 2 3 1 1 2 1 3 2 4 2 4 2 5 2 3 2 3 2 7 5 8 12 15 12 12 15 14 12 12 14 17 16 17 11 10 14 15 17 14 15 13 13 12 11 10 8 8 8 8 9 7 7 11 13 13 13 13 14 13 14 13 13 13 13 14 14 14 14 13 13 14 15 15 16 16 16 17 18 19 20 20 19 18 17 16 15 14 14 13 13 13 11 10 10 11 12
4 1 1 1 2 1 1 2 2 2 3 5 4 5 4 1 1 3 4 4 3 1 12 13 13 11 10 14 12 12 16 19 18 17 16 15 16 14 17 14 13 12 12 12 11 10 10 8 9 7 7 6 7 5 5 9 14 13 13 13 13 13 13 13 13 13 14 14 15 14 14 15 14 15 15 16 16 17 16 16 18 17 17 17 17 15 15 14 13 12 11 11 10 10 10 10 11
3 3 1 1 1 1 1 2 2 5 3 5 6 4 7 2 1 1 2 1 0 1 7 10 9 3 16 9 15 19 21 18 16 16 15 16 14 13 14 14 11 11 10 11 10 9 9 9 7 7 7 7 6 5 6 6 11 13 13 14 14 13 13 13 13 13 14 14 15 14 14 11 11 11 15 12 15 16 15 13 16 15 15 16 15 14 13 13 12 11 10 9 9 8 8 8 9
0 1 3 1 2 0 1 2 4 3 4 3 5 5 4 2 0 3 2 1 1 4 3 3 8 14 14 14 19 22 20 17 16 17 14 12 11 10 9 8 9 10 9 10 9 9 10 9 8 7 7 8 7 6 5 5 8 12 10 14 14 14 13 13 13 14 13 13 12 11 8 5 4 5 7 7 12 9 14 15 15 14 14 14 14 13 12 12 11 10 9 8 8 8 7 8 8
2 2 1 4 2 2 3 3 2 4 7 6 6 3 6 6 2 2 2 1 2 2 7 7 16 12 16 18 19 20 19 17 18 17 14 11 9 9 9 9 9 8 8 7 8 10 8 7 8 7 7 8 8 6 4 4 6 7 4 4 5 8 10 11 8 5 8 5 9 7 4 3 4 4 5 8 5 8 10 15 14 13 13 13 13 12 11 10 10 9 9 8 8 8 8 4 4
3 2 1 4 1 0 4 5 5 7 7 7 7 7 4 4 4 1 2 2 3 3 6 7 15 18 17 18 20 22 20 17 17 17 16 14 10 12 9 7 8 9 7 7 8 9 7 6 6 8 8 7 8 6 5 5 6 4 4 4 5 7 7 5 4 6 4 5 4 4 3 3 3 4 5 6 6 11 10 13 13 13 12 12 11 11 10 10 9 8 7 7 6 7 4 3 3
3 4 2 4 5 1 3 7 8 3 10 9 7 2 6 4 2 2 3 5 4 5 7 14 17 21 19 18 19 21 20 18 17 16 17 14 12 12 10 9 9 8 8 7 8 7 8 6 7 8 8 7 7 6 5 5 6 4 4 4 4 4 4 4 4 4 4 4 4 4 4 3 3 2 10 13 10 5 8 12 13 13 12 11 10 7 9 9 9 7 7 6 5 2 2 2 3
3 3 5 4 6 3 5 8 6 9 9 9 6 3 6 3 2 2 6 7 1 2 3 13 21 21 20 18 18 16 17 19 17 15 15 14 13 10 9 8 8 8 7 7 7 7 8 8 7 7 7 6 7 6 6 5 5 5 4 4 4 3 4 4 4 4 4 4 3 3 4 3 2 5 5 5 5 5 4 4 5 4 3 4 6 2 2 2 3 2 1 1 2 2 3 3 2
5 7 9 8 3 6 5 10 7 9 9 9 8 8 5 2 2 3 4 5 5 4 5 16 19 19 20 19 18 16 17 17 17 15 15 15 14 12 10 8 8 7 7 7 7 7 7 8 8 7 7 6 5 6 6 6 6 5 4 4 4 3 4 4 4 4 4 4 3 3 3 3 4 5 3 5 5 4 4 4 4 3 2 3 3 4 2 2 2 2 2 2 4 4 4 5 3
2 1 6 11 7 6 7 12 13 10 8 10 7 5 6 3 4 3 1 2 2 2 1 16 17 18 17 17 16 18 18 16 17 17 15 15 14 13 12 10 9 8 7 7 7 6 6 8 8 7 7 7 6 6 5 4 5 5 4 4 4 3 4 4 5 5 4 3 2 3 4 4 4 3 4 5 5 5 4 4 4 3 2 1 0 1 3 4 3 4 4 5 5 6 6 7 5
5 6 3 5 16 11 9 13 16 11 9 8 6 8 5 5 8 1 2 1 3 2 1 16 17 16 17 16 16 18 17 16 17 17 16 16 15 14 12 11 9 7 7 8 8 6 5 9 8 7 7 7 7 7 6 4 4 5 5 5 3 3 4 4 4 4 4 3 2 4 4 5 4 4 4 4 4 3 3 4 5 4 4 3 1 1 1 1 3 4 5 4 5 6 7 6 7
4 4 7 6 5 8 12 12 13 13 9 9 12 9 6 2 4 3 2 2 4 2 2 16 17 16 14 14 14 15 15 15 16 18 15 14 15 15 12 9 10 8 9 9 7 8 6 8 8 8 8 7 7 7 6 4 5 4 4 4 4 4 3 4 4 4 3 3 2 3 3 5 4 5 5 4 4 2 1 3 3 4 4 3 2 0 1 2 3 4 4 4 5 6 3 4 4
5 7 6 7 1 14 14 14 14 12 6 10 12 9 4 5 4 2 3 2 6 3 5 14 17 17 15 14 14 12 13 13 14 14 14 14 16 18 15 12 11 9 11 10 10 8 6 7 8 8 8 8 7 7 5 5 5 6 4 4 4 4 2 3 4 5 5 3 2 3 2 4 5 5 5 5 5 3 1 2 4 3 4 3 3 2 3 3 4 4 3 3 2 2 4 3 3
10 4 7 9 9 9 8 14 14 12 8 11 13 8 6 6 3 2 1 3 4 7 12 14 16 16 15 13 13 12 13 13 14 11 13 12 15 14 15 13 10 10 13 11 9 8 5 7 7 7 7 6 6 7 7 5 5 6 5 5 4 4 4 2 3 4 5 4 3 2 1 2 4 4 5 5 4 4 3 3 3 4 3 3 2 2 2 3 3 5 1 2 4 2 1 1 2
14 14 12 12 13 13 12 14 15 11 7 7 11 8 4 4 1 1 2 6 4 9 11 14 14 14 13 14 12 11 10 11 10 10 13 15 10 12 14 12 11 11 14 11 9 8 7 8 8 7 8 7 7 7 6 6 4 5 5 5 4 4 4 2 4 4 4 4 4 3 3 3 2 3 5 4 5 5 4 4 3 4 4 3 3 3 2 4 4 4 4 3 2 2 2 1 2
12 13 7 4 13 5 8 15 12 9 7 10 10 11 4 1 4 9 11 8 2 2 11 9 14 12 13 14 12 9 9 9 8 9 11 11 9 13 14 12 12 10 10 14 11 11 10 9 9 7 7 7 7 8 7 6 5 5 5 5 4 4 3 3 4 4 4 4 4 4 4 3 3 3 5 5 4 4 3 4 3 3 3 4 3 3 3 4 2 2 2 2 2 1 1 3 2
8 11 7 6 9 6 5 8 11 11 2 10 4 5 4 1 5 4 3 2 7 3 7 13 10 11 11 11 11 7 11 8 8 9 7 10 11 13 13 12 12 9 10 10 14 12 9 8 7 7 7 7 7 6 5 5 6 5 4 4 5 5 4 4 4 4 4 4 4 3 4 3 3 5 6 4 4 3 3 3 3 4 3 3 2 2 3 1 3 2 2 2 2 1 1 1 1
4 9 6 7 6 1 12 7 8 9 1 4 2 6 3 1 3 1 6 7 6 3 9 12 11 11 10 10 11 7 10 9 7 7 12 10 12 12 13 14 11 12 10 11 12 13 11 8 9 7 8 7 7 7 7 6 5 6 5 5 5 5 5 5 5 4 4 5 5 5 5 4 5 6 6 6 5 4 4 3 2 3 3 3 3 1 2 1 2 0 1 4 3 3 1 1 1
5 2 4 6 9 2 5 5 6 8 4 6 1 5 2 4 4 6 4 4 6 1 11 10 12 11 12 11 11 9 9 11 8 12 12 9 11 11 13 13 12 15 13 11 11 12 10 9 8 10 10 8 7 6 6 7 7 6 5 5 5 6 5 4 5 4 5 4 4 4 4 4 4 4 4 5 6 6 5 5 4 4 4 3 3 2 1 1 1 1 1 1 1 1 1 2 2
4 3 3 9 6 6 3 5 5 7 11 1 2 4 3 1 3 6 3 7 4 1 5 14 9 12 14 11 10 10 9 9 11 11 11 7 10 10 12 12 14 13 13 9 13 12 10 8 9 10 12 10 10 9 7 6 7 8 7 7 6 6 6 5 5 5 5 4 3 5 5 4 4 3 3 3 5 5 6 5 5 4 4 3 3 2 1 2 3 1 2 1 1 1 1 2 3
5 5 4 11 12 7 4 3 4 9 10 6 2 3 5 5 7 8 5 6 7 4 4 3 1 11 10 11 9 11 8 6 11 10 12 6 8 10 11 13 14 12 9 12 13 12 11 9 9 9 8 7 6 8 9 8 7 7 8 9 8 8 8 6 6 6 6 4 4 5 4 4 4 4 3 2 3 3 4 5 4 4 4 4 3 2 2 2 2 2 1 2 1 2 2 3 3
6 7 6 8 15 15 14 11 11 13 8 10 7 3 8 9 8 8 8 6 4 6 4 1 4 4 4 14 8 11 9 5 10 9 11 8 9 9 10 13 13 12 8 13 12 10 9 9 8 7 9 6 5 4 5 5 5 4 3 6 7 7 6 6 6 6 6 6 5 4 4 4 4 3 3 3 3 3 5 4 4 4 4 4 3 3 2 1 1 1 1 0 1 0 2 3 1
8 9 8 7 13 14 10 12 16 15 12 9 11 7 10 12 9 6 8 6 3 5 2 1 2 3 2 4 8 12 8 7 9 11 11 9 8 9 11 10 11 11 10 11 11 10 9 8 8 8 7 6 5 4 4 4 4 3 5 2 3 3 5 5 5 6 7 6 5 5 4 4 4 3 3 2 2 3 3 4 4 4 4 4 3 2 1 0 1 0 0 1 1 2 2 2 4
14 14 8 7 8 11 13 15 14 12 11 7 10 10 10 11 10 8 8 8 6 8 6 1 3 4 5 4 4 12 10 7 10 12 11 10 11 9 10 9 11 10 10 11 11 11 7 10 11 10 8 7 6 5 4 5 3 4 3 3 3 4 6 5 5 6 6 6 6 5 5 5 4 4 3 3 2 3 3 3 4 3 3 3 3 2 2 1 0 2 1 0 0 2 1 1 2
11 11 12 10 8 15 17 19 19 17 9 6 9 12 11 10 9 9 8 10 8 7 8 5 5 5 5 5 5 13 9 6 11 10 12 10 10 12 10 9 10 12 11 11 11 9 8 11 11 10 8 7 6 5 5 4 3 3 3 3 3 4 6 6 5 5 6 6 5 5 4 4 4 4 3 3 2 4 4 4 4 4 4 4 3 3 2 1 1 0 1 0 1 0 1 2 3
8 7 6 8 5 16 14 17 20 12 10 10 12 11 9 9 9 10 11 11 8 8 9 9 7 7 7 7 4 3 12 8 10 9 13 11 12 13 10 10 10 12 12 12 11 9 10 9 8 9 9 8 6 5 6 4 3 4 3 2 4 2 3 4 5 4 6 6 6 5 5 4 4 5 4 3 3 3 4 4 4 4 3 4 3 3 2 2 3 2 2 2 0 1 1 3 2
7 7 6 3 12 13 8 11 19 15 10 13 14 10 6 5 7 9 10 10 9 7 6 4 5 9 9 8 4 2 9 9 14 9 13 13 11 13 10 10 11 11 10 11 11 9 9 8 7 9 9 8 7 6 5 5 4 5 3 4 6 4 4 4 4 4 5 6 6 5 5 5 4 5 5 4 3 3 4 4 4 4 4 3 4 4 3 2 1 1 3 3 2 1 1 2 1
7 9 6 6 9 8 17 11 13 14 12 18 15 8 6 6 9 8 9 9 8 8 7 3 3 2 5 3 2 3 5 10 13 10 12 12 12 13 11 11 13 12 11 11 11 9 8 10 8 10 9 8 7 7 6 6 5 6 2 4 4 5 5 5 4 3 5 4 4 4 5 5 4 5 5 4 3 3 3 4 3 3 3 3 3 3 3 3 2 3 3 2 2 3 0 1 1
7 7 8 9 7 11 15 19 10 4 9 13 18 6 4 8 9 10 10 7 8 8 9 9 7 5 2 5 7 7 6 3 15 10 12 12 12 13 11 12 13 12 11 10 11 10 9 9 8 9 7 7 8 7 7 7 6 5 5 7 6 6 6 6 6 6 6 6 6 5 4 5 5 5 5 4 4 4 3 4 4 4 4 4 4 3 2 2 2 2 2 3 2 1 1 1 1
2 4 8 10 8 8 16 15 13 8 11 12 13 9 5 9 9 9 12 13 10 9 11 10 10 7 5 6 6 8 7 5 11 10 13 12 13 14 11 12 13 13 11 11 11 9 11 10 8 10 8 6 8 6 7 6 5 5 5 5 6 7 7 5 5 4 6 5 5 6 5 4 4 5 4 4 4 4 4 3 4 4 3 4 3 3 3 4 3 3 4 3 3 1 2 1 2
5 4 7 5 7 7 8 10 8 8 10 14 15 4 10 8 9 11 14 13 14 14 12 12 10 11 10 7 7 8 7 7 11 8 13 12 14 16 13 12 13 13 12 11 11 9 13 11 8 9 7 7 7 6 7 7 6 5 4 4 5 6 7 6 7 5 5 5 7 7 6 5 5 4 5 4 4 5 4 4 4 4 4 5 4 4 4 3 3 3 3 3 3 2 3 4 1
4 8 6 9 12 4 4 11 2 2 7 8 10 10 6 4 7 13 13 12 13 14 13 12 13 11 11 9 8 9 8 6 9 8 11 12 14 16 13 12 12 14 13 11 12 10 12 11 9 8 8 7 8 6 7 7 7 6 5 4 5 5 5 6 6 6 6 4 8 6 6 5 6 4 6 6 4 6 5 5 4 4 4 4 3 3 3 2 2 4 3 3 3 3 3 2 1
3 11 8 8 4 5 14 5 1 3 0 6 12 11 6 6 9 10 12 11 14 15 15 14 14 15 13 11 9 8 6 6 4 7 8 11 14 15 13 12 12 14 14 11 11 11 11 11 9 9 8 8 9 6 7 8 8 6 6 4 6 5 5 4 4 7 6 5 6 7 5 5 5 4 6 5 4 5 4 4 4 4 4 3 3 3 3 2 3 3 3 3 3 3 0 3 2
2 8 6 6 5 3 2 3 2 0 4 4 16 16 11 4 11 13 14 15 16 13 10 10 12 12 11 12 12 10 9 7 6 5 6 7 12 14 14 14 11 14 13 13 12 13 12 12 10 9 8 7 9 8 7 8 8 6 6 5 7 5 7 5 4 5 6 4 6 5 6 6 4 5 5 5 5 4 4 4 4 5 4 3 3 3 3 4 3 4 4 3 3 3 2 1 1
9 1 4 3 7 4 5 1 2 1 2 4 4 4 10 9 5 7 7 8 13 17 16 15 14 13 10 10 10 11 10 9 7 6 6 6 11 14 14 14 11 13 15 14 12 13 12 12 11 9 8 7 10 9 7 8 8 7 6 5 7 5 7 6 5 5 7 7 6 6 6 5 4 4 3 5 5 5 4 4 4 4 4 4 4 3 4 3 2 4 3 3 3 3 3 2 1
2 2 2 6 1 2 1 1 3 4 4 3 4 5 7 2 9 15 13 15 13 14 13 15 15 14 13 11 10 9 10 9 8 5 8 7 7 12 15 13 11 9 14 14 15 14 13 13 12 12 10 8 10 10 8 7 7 6 7 6 7 5 6 6 5 5 5 6 6 6 6 6 5 5 5 5 5 6 5 6 3 5 4 4 3 3 4 3 3 5 4 4 4 4 4 3 3
2 4 1 4 1 1 1 1 1 1 5 6 11 7 6 5 8 11 15 15 17 14 13 14 14 12 12 11 10 10 10 10 8 5 6 5 6 5 12 12 13 7 14 14 15 14 13 13 12 12 12 8 10 10 9 8 7 6 6 5 7 5 6 6 5 6 5 5 5 6 6 6 5 6 6 6 7 6 6 5 5 4 4 3 4 4 4 4 3 4 3 3 4 3 3 3 4
4 2 3 2 2 2 3 1 3 2 5 6 6 1 4 5 6 14 9 8 12 12 11 11 10 10 10 10 11 10 11 10 10 9 8 7 7 6 7 10 12 7 10 13 14 15 14 14 13 13 12 9 11 11 8 9 8 7 6 5 6 5 6 6 5 6 6 5 4 5 6 5 5 4 6 7 7 6 7 5 6 5 4 4 4 4 4 3 3 3 2 2 3 2 2 3 3
5 4 3 1 6 3 3 5 3 5 5 3 1 3 4 7 7 5 13 12 8 10 11 10 9 10 10 10 10 10 10 10 11 11 10 8 6 7 5 6 6 7 4 6 12 14 15 15 14 13 13 10 11 11 9 9 8 7 6 6 5 6 5 5 6 6 6 6 5 5 6 5 5 5 3 7 5 8 7 6 5 5 5 5 4 4 4 5 4 4 3 3 3 2 2 3 3
4 6 6 4 2 2 1 2 8 2 3 1 4 4 7 5 11 10 6 9 7 11 9 9 8 7 9 8 7 9 8 7 9 8 7 6 5 6 9 7 9 8 5 7 8 13 14 14 14 14 13 10 10 10 10 8 7 6 7 6 5 5 6 5 7 6 7 6 6 5 6 6 6 6 4 5 4 7 7 7 5 6 5 5 5 4 4 4 4 4 4 3 3 3 3 3 3
2 4 4 5 3 2 2 1 1 3 4 3 7 14 10 8 3 2 5 11 9 7 10 9 7 9 7 5 4 6 5 4 6 6 4 7 5 6 6 7 10 10 8 9 7 9 14 15 16 15 14 14 11 11 11 9 9 7 7 7 7 6 6 5 4 6 6 6 6 5 5 5 5 7 5 3 4 5 6 7 6 5 6 5 5 5 4 5 4 3 4 4 4 3 3 3 3
3 1 3 5 3 7 1 3 2 1 3 3 4 16 10 5 9 8 8 7 7 6 6 8 10 11 6 8 3 6 4 5 6 4 4 4 5 4 3 5 5 5 8 10 9 9 9 11 14 14 15 15 13 11 10 9 9 8 7 8 8 7 6 5 4 4 4 6 6 6 4 5 4 4 6 4 5 4 4 5 6 5 6 6 6 6 4 4 4 4 3 5 4 4 4 4 3
6 1 5 1 2 0 1 3 1 1 2 5 1 3 2 6 1 10 11 10 11 11 8 7 9 10 8 8 6 7 8 6 6 6 6 8 9 8 5 2 7 10 9 8 9 9 11 10 11 11 11 11 11 12 10 10 10 8 8 7 6 5 6 7 6 6 6 5 6 7 5 5 7 4 5 4 7 7 5 5 5 5 6 6 6 6 6 5 5 5 4 5 5 4 4 4 3
4 1 3 6 1 1 0 2 4 4 2 4 6 3 4 4 7 4 13 11 13 13 11 10 10 10 9 9 8 7 8 6 1 5 6 9 10 8 8 4 4 6 6 7 7 8 9 8 10 10 10 10 11 11 10 9 9 8 8 10 9 7 7 7 7 7 9 7 5 6 8 6 6 7 6 4 5 6 7 7 5 5 5 6 5 5 5 6 5 5 5 4 4 5 5 5 4
1 3 2 5 3 3 4 7 2 5 3 5 8 3 2 1 5 6 6 9 10 6 12 13 14 14 13 11 11 9 9 9 9 7 3 4 5 3 5 7 7 9 10 10 9 9 9 10 10 8 3 2 3 3 4 3 4 7 8 9 9 8 7 6 8 6 9 8 7 6 8 6 7 8 7 8 6 5 6 7 7 6 5 5 6 6 5 5 5 5 5 5 4 4 5 5 4
Wind_Direction
204 185 178 198 190 226 225 134 348 180 150 284 6 116 141 345 27 1 235 148 105 148 260 71 225 128 151 97 111 75 37 143 135 132 160 140 140 157 150 131 136 133 131 132 137 142 145 149 144 143 139 134 125 123 119 115 111 104 104 104 96 97 104 104 103 105 104 101 100 101 102 101 101 101 104 106 104 98 103 102 104 107 108 111 114 116 114 112 111 110 109 104 103 103 104 105 106
203 188 198 190 206 181 212 227 4 270 108 323 234 151 77 266 91 268 186 169 147 112 155 160 131 105 96 106 96 65 33 22 93 99 81 121 138 148 136 137 142 137 136 138 138 132 136 145 148 143 143 133 129 125 122 115 110 110 110 104 99 104 105 101 102 104 103 102 100 101 101 102 103 103 103 93 101 105 104 106 109 108 112 117 118 117 118 116 112 111 108 108 109 106 104 104 106
209 205 189 185 238 226 295 70 263 129 282 342 302 133 97 117 166 188 292 156 174 116 122 95 81 83 75 64 44 82 67 72 93 86 107 130 127 145 139 142 141 137 138 143 144 145 153 164 157 153 136 132 128 126 120 116 114 114 110 107 108 107 103 102 101 102 102 100 100 101 102 103 103 103 101 105 109 109 111 110 107 109 111 114 115 113 111 109 112 110 106 106 107 107 104 103 103
237 251 259 154 254 213 106 65 237 282 237 63 312 83 184 178 184 191 214 242 117 139 126 87 80 48 94 82 99 89 89 68 86 119 124 145 144 142 140 141 138 136 139 140 140 145 153 163 159 152 134 131 130 125 122 116 117 116 113 108 105 107 107 104 103 102 102 101 100 100 102 97 91 90 100 108 110 113 108 110 109 113 115 114 109 107 102 99 107 108 106 105 104 102 104 106 108
261 278 194 262 209 14 60 254 212 194 252 149 165 166 207 194 187 139 244 283 101 108 103 108 103 101 86 103 112 97 113 105 95 101 115 123 138 137 140 142 142 139 137 135 136 141 152 156 158 143 136 133 129 124 121 122 120 116 110 104 106 107 107 107 108 105 102 102 103 105 103 100 105 111 111 103 108 104 110 107 109 111 114 115 115 110 110 113 109 107 107 106 104 107 106 105 106
250 284 254 232 88 152 360 274 225 233 242 162 186 211 187 180 200 166 190 91 11 73 116 108 94 101 77 66 78 106 137 123 131 109 125 137 139 141 143 146 140 135 130 128 133 141 150 154 144 139 135 130 123 123 125 124 120 112 106 106 108 110 110 109 109 109 106 105 105 106 103 99 95 93 93 111 100 99 104 109 111 114 112 110 109 108 106 107 104 108 109 109 110 105 107 107 105
197 202 327 89 71 65 256 253 261 282 7 336 264 107 149 227 192 146 88 79 329 78 85 98 106 102 88 107 102 90 94 116 127 130 131 139 139 142 144 142 135 127 127 127 128 136 145 144 141 138 133 126 125 126 128 122 118 111 110 110 110 110 108 108 108 109 110 109 108 106 101 97 96 96 104 105 111 112 110 110 114 113 111 111 107 107 108 109 109 108 109 108 108 108 107 107 109
224 283 337 77 321 34 247 261 275 164 250 319 9 35 23 273 352 28 100 104 156 115 113 90 84 94 87 92 107 117 128 110 117 127 130 136 143 140 139 134 123 122 123 127 131 136 143 142 140 137 131 129 129 131 127 121 116 113 108 107 108 108 107 106 109 110 108 106 106 107 102 100 98 98 97 105 109 111 109 108 109 110 112 114 114 113 112 114 114 111 111 108 108 109 108 102 103
58 102 267 94 287 208 286 261 240 149 130 67 49 26 73 353 39 310 66 319 104 101 101 107 121 98 109 99 90 120 102 118 119 127 135 139 130 130 135 128 125 124 126 129 134 138 137 143 140 137 133 133 132 129 124 121 117 114 110 110 110 110 109 109 112 112 110 107 106 104 103 102 100 101 101 101 105 107 110 109 110 111 114 114 116 117 116 116 115 115 113 112 112 108 107 114 111
75 349 42 308 107 260 246 280 170 358 61 77 110 65 63 321 357 86 194 198 99 95 87 92 95 97 116 106 115 113 119 121 129 128 135 129 121 135 131 126 127 127 126 133 137 137 141 143 143 138 136 133 130 128 124 121 116 111 111 113 113 115 117 117 115 114 109 106 105 103 103 100 101 100 103 104 104 104 110 117 115 110 109 111 115 118 120 120 118 116 116 116 113 111 109 103 102
46 49 41 315 260 293 236 285 112 70 92 104 86 36 46 320 312 51 339 52 85 99 105 109 101 110 108 98 94 111 121 130 132 132 136 134 137 148 124 127 127 129 134 138 140 139 140 141 142 137 131 130 127 126 124 119 117 115 115 115 115 116 117 118 115 111 108 106 105 105 102 101 100 100 101 101 103 111 113 116 118 120 117 117 121 121 122 122 121 121 121 117 114 112 107 101 104
88 91 97 330 310 347 322 79 106 93 64 120 117 145 248 28 297 178 176 214 114 116 124 135 105 116 103 107 112 128 132 134 134 134 129 129 133 126 120 125 131 135 137 139 137 136 137 139 135 134 130 127 126 126 121 119 118 117 115 115 116 117 117 117 115 113 109 108 105 102 101 102 100 99 100 100 104 104 109 110 118 118 119 124 127 128 130 129 126 125 122 118 113 113 110 105 104
123 189 119 62 291 299 328 102 113 123 113 59 119 176 166 77 257 292 196 59 94 111 92 101 121 115 114 117 136 131 132 126 124 105 94 114 128 120 124 131 137 138 136 135 136 136 138 135 134 129 131 129 127 123 122 121 120 116 114 115 114 116 117 117 116 114 111 109 106 104 103 102 102 101 100 103 103 104 110 122 124 125 127 130 131 129 128 125 123 122 120 119 116 114 111 103 95
98 198 130 338 244 289 36 73 83 107 61 144 188 127 108 204 278 282 280 79 37 98 120 125 119 114 103 124 135 138 131 135 115 112 121 136 122 128 132 133 133 133 137 136 133 137 138 138 135 130 124 120 122 123 124 122 120 117 118 118 119 122 120 118 118 116 113 109 108 108 108 105 103 103 103 104 104 108 114 117 126 130 132 133 127 123 121 119 119 119 119 117 116 112 111 109 101
117 264 107 218 308 48 354 126 164 105 124 198 151 144 145 246 188 253 40 92 96 209 115 106 117 122 152 146 147 143 136 139 135 138 143 131 128 131 124 127 133 137 135 134 136 139 144 139 132 126 120 121 115 114 113 125 123 121 120 122 122 122 121 120 120 118 116 114 111 110 108 105 105 103 103 102 102 104 105 107 112 117 120 120 120 121 120 119 119 117 116 115 115 116 116 113 107
138 165 344 357 302 279 167 167 164 133 161 198 151 147 104 330 294 355 8 79 305 81 115 133 168 103 143 131 136 135 134 137 136 131 128 129 124 120 127 135 136 131 134 141 144 146 139 136 139 134 134 128 121 119 121 126 126 123 123 124 124 125 125 124 123 121 115 113 110 107 103 100 98 100 101 101 104 103 104 107 107 109 113 115 115 116 116 116 115 117 119 119 116 117 114 109 111
207 53 347 357 290 307 194 165 160 157 131 168 133 146 115 143 292 290 331 155 36 82 76 113 106 135 130 134 133 129 130 134 133 120 110 123 130 131 130 130 130 140 147 152 148 140 137 145 143 144 138 130 127 122 122 126 129 123 124 126 125 127 126 126 125 121 113 109 104 98 78 58 53 78 86 89 97 103 106 107 108 110 112 113 113 113 115 117 119 123 126 128 125 121 125 124 124
91 80 99 298 264 253 186 182 168 121 141 162 134 197 127 121 182 217 261 307 137 79 96 113 133 123 131 131 130 126 128 137 133 127 128 128 128 130 136 137 142 147 149 147 134 131 137 143 149 144 135 129 127 126 128 121 119 114 107 111 120 126 125 123 117 106 98 78 86 84 75 67 54 75 93 99 90 98 104 107 109 111 109 109 111 114 117 122 125 130 134 133 136 139 138 129 141
89 29 58 270 240 257 156 158 144 150 142 135 125 199 153 139 160 212 132 120 121 112 126 156 116 118 124 133 132 129 136 136 127 128 133 134 133 132 136 139 139 137 141 129 126 131 138 146 145 132 132 135 126 130 132 126 121 127 124 131 130 131 128 120 111 101 82 94 84 83 83 79 69 84 104 112 108 109 107 108 110 111 111 112 112 115 121 125 131 133 140 145 149 153 143 162 171
133 127 350 268 258 264 165 153 158 161 128 128 137 198 115 143 119 231 137 139 136 130 131 133 128 129 139 136 137 139 146 136 132 136 138 139 134 134 139 138 135 139 137 132 131 134 143 146 138 134 139 135 129 131 128 126 136 139 136 129 131 128 120 114 110 111 107 105 111 111 93 102 100 101 113 107 102 88 104 109 111 113 113 114 116 114 123 128 134 142 150 168 170 188 206 207 191
150 113 191 245 270 190 160 154 180 135 138 135 126 148 108 142 134 192 121 85 33 71 147 141 138 141 139 140 139 142 134 131 137 139 138 138 133 133 136 135 140 140 134 125 132 145 148 143 139 131 134 135 133 136 133 135 139 128 125 135 133 141 128 120 116 119 125 123 124 122 122 125 112 96 96 98 92 96 90 87 87 74 92 104 114 87 92 128 114 134 186 194 296 290 281 261 217
147 189 182 194 256 259 193 174 147 139 135 129 132 134 135 133 156 115 139 130 173 182 158 141 140 140 142 143 145 137 133 138 138 139 143 140 141 140 138 135 137 135 126 132 145 145 150 139 138 137 137 139 135 133 139 148 141 132 143 146 141 155 124 122 117 110 110 119 135 121 136 120 116 121 105 110 114 111 112 121 124 123 127 128 133 154 143 148 173 187 216 238 252 261 264 264 250
170 279 203 193 218 205 188 166 142 146 143 134 145 117 125 165 127 162 155 139 135 98 356 142 140 140 142 143 145 138 141 147 141 144 146 146 143 144 143 144 147 144 140 141 147 152 150 140 141 147 146 144 138 138 141 135 131 142 147 146 144 146 127 126 134 125 128 146 144 148 140 124 127 129 116 127 136 146 155 146 136 149 138 117 26 90 175 180 203 204 206 207 216 228 241 238 227
151 222 247 226 184 196 179 152 145 144 143 142 111 132 120 142 131 149 106 214 93 181 359 144 138 138 142 148 149 141 146 154 148 146 152 147 144 144 145 144 142 140 135 142 150 155 162 150 149 154 151 144 136 146 145 144 137 143 147 150 123 145 121 130 123 124 141 158 168 150 140 136 144 148 133 137 149 128 148 142 153 156 140 121 68 30 2 252 239 219 210 225 220 229 222 154 166
162 229 241 259 233 192 167 153 146 141 129 115 133 128 139 135 119 152 187 169 139 100 97 138 137 142 147 146 143 142 147 152 147 156 154 148 144 145 147 142 147 157 139 145 149 155 177 152 161 151 152 141 140 151 149 138 133 124 117 118 135 143 108 129 134 136 148 167 198 142 143 151 161 152 148 151 142 151 138 149 140 125 120 127 120 156 242 283 279 275 253 240 247 220 195 155 139
198 217 231 254 240 171 158 158 143 133 125 139 120 119 143 82 113 109 169 175 140 155 169 151 143 146 152 149 143 146 152 153 149 161 144 147 148 153 149 152 158 164 144 147 152 166 174 162 166 152 150 145 146 139 127 129 128 135 136 137 156 143 169 167 140 142 157 170 163 147 136 143 151 148 152 151 146 140 111 100 116 130 132 138 138 178 216 229 254 276 279 276 234 110 166 183 150
164 189 260 248 136 97 200 150 135 144 142 139 122 140 134 134 171 119 276 150 220 164 162 152 150 150 150 152 146 150 161 153 159 158 148 147 151 151 146 145 161 145 140 147 154 164 182 164 162 156 140 139 132 131 137 136 135 135 139 143 142 152 181 204 140 145 158 159 151 146 131 133 122 142 130 139 134 138 146 120 130 140 133 161 179 214 249 244 258 256 241 298 317 272 191 151 133
157 175 213 230 128 175 175 139 138 143 128 123 113 98 100 110 7 93 202 158 195 154 147 154 152 152 152 146 149 158 159 155 156 156 152 148 154 137 139 148 158 152 143 151 153 166 169 171 159 154 144 140 132 131 130 133 137 136 134 140 148 168 176 185 148 165 165 157 152 167 169 159 130 126 135 134 141 152 154 144 145 148 167 165 192 210 236 245 238 219 168 178 249 268 222 244 178
174 174 180 244 89 160 182 145 148 124 111 123 119 94 71 340 64 20 15 29 120 42 140 172 153 155 153 147 151 169 150 154 162 160 160 146 145 136 142 150 157 154 141 147 153 164 160 173 147 153 146 139 135 144 147 139 138 144 141 149 157 167 170 176 172 177 171 157 154 164 175 165 165 140 146 147 148 154 144 145 145 173 165 188 193 215 236 243 209 352 39 124 267 340 33 4 347
193 182 153 89 122 139 181 125 119 93 90 141 169 113 186 164 82 120 191 69 56 128 234 159 164 157 149 147 156 162 151 160 171 168 146 139 130 139 142 144 159 141 139 141 154 154 160 156 149 152 154 151 146 142 138 144 142 143 149 156 160 160 179 187 182 183 168 160 157 173 176 181 174 154 149 153 153 153 162 160 165 169 183 179 189 215 234 6 47 47 4 48 22 38 8 300 342
272 170 176 119 121 131 327 328 86 74 353 169 25 119 167 122 101 153 43 42 59 24 246 157 166 155 149 146 164 158 155 169 174 135 136 136 136 142 144 148 156 133 135 148 151 146 161 153 154 154 160 148 152 146 152 157 148 147 163 166 161 171 174 192 179 181 163 170 167 175 158 152 131 131 152 152 167 167 171 167 179 184 160 152 141 108 54 56 58 71 67 38 12 351 219 250 157
274 202 204 109 125 174 181 228 163 132 244 248 1 80 180 129 138 87 82 80 30 325 214 169 162 161 151 150 172 155 167 176 155 134 143 143 140 145 145 151 133 139 143 158 143 145 148 150 155 146 157 156 160 162 165 159 156 161 174 175 163 169 166 191 186 168 150 158 154 133 123 118 110 110 113 135 147 149 150 152 151 138 133 116 115 74 39 71 211 78 31 100 37 1 343 294 263
250 204 190 115 120 153 152 251 224 163 137 324 325 147 97 45 144 113 138 116 87 264 275 169 161 167 149 151 173 159 171 185 146 141 147 151 142 144 144 135 136 142 153 150 139 141 147 151 141 144 159 165 163 171 173 164 165 167 181 170 172 172 176 194 170 151 141 143 137 122 121 116 114 100 81 84 118 136 141 132 138 131 125 121 99 96 87 53 28 21 353 338 152 240 17 350 321
241 188 199 138 136 169 174 155 185 165 144 162 206 123 158 136 163 137 181 140 141 197 264 328 128 170 151 153 166 161 170 174 148 142 152 156 140 136 140 133 141 146 149 136 138 141 147 143 145 151 145 154 146 151 158 170 172 172 168 163 174 184 189 171 156 151 152 142 133 132 127 125 118 102 88 82 95 138 128 131 131 119 115 112 105 94 68 54 53 22 324 310 22 52 328 278 198
203 179 198 170 151 171 163 166 178 156 179 141 170 184 133 137 152 159 152 159 158 178 242 213 78 41 148 153 177 156 169 175 150 145 153 148 149 140 133 141 144 144 141 134 137 136 138 144 148 143 140 145 131 122 121 129 133 138 154 157 160 174 149 146 149 144 141 138 143 145 135 127 119 114 106 90 100 120 120 121 121 117 117 112 103 78 67 81 26 351 325 342 7 271 222 274 220
235 171 199 199 164 167 176 169 159 166 156 146 165 156 139 148 152 146 144 129 97 93 315 82 43 126 360 185 166 156 170 170 152 149 155 150 152 142 131 142 137 142 134 132 136 136 146 146 138 134 140 135 130 121 113 123 115 133 156 134 136 120 123 116 115 131 136 137 144 143 136 126 130 125 122 112 81 120 127 130 127 121 115 106 104 91 67 271 214 209 360 118 16 319 295 256 275
278 289 287 267 217 164 150 143 165 168 125 174 154 142 149 154 152 162 147 138 140 151 171 149 150 135 201 305 197 155 166 173 155 155 153 152 151 139 133 138 137 137 130 134 137 146 143 142 140 143 144 139 137 138 137 151 142 145 141 163 157 131 129 125 114 119 131 138 144 141 143 139 140 135 125 103 108 124 130 128 116 111 111 116 131 170 194 200 165 226 208 73 29 22 327 317 312
285 309 301 285 289 120 163 156 175 169 144 175 159 148 166 155 152 161 148 156 174 168 166 194 163 186 209 210 264 161 166 163 159 152 156 158 150 142 137 138 135 136 138 136 144 145 140 142 143 144 143 145 147 151 152 159 163 161 157 173 123 120 132 129 130 135 134 140 141 141 146 152 143 142 144 136 128 129 131 125 131 133 134 151 169 188 183 202 182 196 108 30 297 135 245 244 258
263 255 262 284 79 136 147 163 160 157 135 154 150 150 171 155 159 163 166 170 174 174 186 177 168 188 203 216 235 213 160 171 170 158 162 158 150 145 141 138 135 140 139 140 145 140 143 143 141 144 147 149 159 163 154 166 167 155 154 164 138 118 143 136 138 145 136 141 147 152 156 159 146 145 155 152 151 160 135 137 151 155 165 166 151 193 202 188 182 169 145 144 289 293 235 268 217
242 251 267 267 154 143 162 160 155 164 158 154 154 135 166 132 145 173 174 168 162 171 176 158 169 184 204 204 198 238 173 166 174 171 164 157 150 147 143 143 139 143 141 142 151 148 150 148 143 147 151 152 167 175 161 164 163 170 167 160 160 158 145 136 129 112 124 134 151 152 154 161 153 153 161 165 162 164 149 155 157 161 181 174 165 179 170 183 162 186 193 203 149 53 357 308 165
230 244 252 271 188 147 143 174 172 170 143 148 138 128 141 166 161 170 172 163 146 175 168 190 176 240 206 183 218 231 233 167 174 171 163 160 152 154 149 150 143 150 148 150 155 155 157 156 151 152 153 159 170 176 160 162 164 176 137 159 116 92 96 116 119 125 140 153 145 148 166 166 162 161 173 174 161 170 164 158 158 173 164 175 164 157 159 196 188 211 181 153 176 148 50 312 319
256 233 237 256 270 118 171 158 169 122 144 168 151 120 169 170 177 170 151 137 168 166 167 193 199 194 172 179 203 228 234 228 173 173 171 164 150 157 147 151 148 152 153 154 156 158 153 156 150 155 155 158 172 173 163 163 167 144 155 142 138 132 136 142 163 164 161 169 170 163 165 179 174 169 173 177 166 163 163 157 163 174 164 172 177 183 188 214 224 230 206 183 189 235 148 57 332
222 237 229 246 261 128 188 156 155 156 161 186 174 128 154 162 175 178 162 158 168 159 184 190 190 195 199 193 199 209 216 222 182 168 174 164 151 159 156 155 150 155 157 157 157 159 154 159 153 160 161 160 169 165 161 151 142 145 150 145 145 148 151 167 171 174 162 170 154 168 171 187 183 171 174 174 166 163 162 170 169 175 170 179 188 171 189 210 202 211 155 125 126 131 93 107 57
248 270 195 247 281 264 198 179 172 171 187 171 195 138 136 173 181 171 165 156 156 174 181 187 191 199 200 199 193 199 211 226 178 175 175 165 154 163 163 158 154 158 156 161 162 156 156 164 158 162 159 158 168 159 157 150 144 150 147 153 145 150 161 164 176 182 172 170 162 165 170 188 189 186 169 174 165 164 171 184 184 182 176 190 183 188 206 215 168 168 154 152 149 138 128 127 159
226 239 225 202 231 253 280 271 226 206 98 161 217 117 84 152 149 158 160 153 160 166 178 185 190 195 203 199 202 198 214 236 188 179 181 165 155 166 161 159 158 156 160 167 168 154 157 162 159 161 157 157 168 162 157 150 146 161 165 160 151 160 157 172 166 170 168 159 158 160 173 177 191 185 164 177 170 172 181 185 183 183 183 194 186 188 197 203 167 162 156 126 143 152 163 168 121
272 284 309 311 287 226 222 208 129 312 110 171 209 182 120 137 155 156 168 166 167 172 181 188 185 188 193 200 195 201 221 242 223 189 187 167 158 163 163 161 162 162 162 167 161 151 157 160 163 162 161 159 166 164 159 155 155 165 174 164 161 162 159 171 152 148 166 156 149 167 170 175 181 168 165 169 164 176 185 182 177 179 196 190 167 164 188 196 168 140 139 130 141 143 135 161 165
152 248 274 289 268 284 221 129 94 10 262 224 191 203 130 146 186 174 166 188 177 163 172 184 185 185 186 190 190 191 201 218 223 198 189 167 163 157 161 170 171 163 159 166 157 155 157 162 166 165 169 158 166 170 160 163 166 171 175 170 167 164 163 164 151 144 155 150 159 166 169 175 173 170 157 171 173 182 187 189 190 182 184 175 172 165 182 191 185 157 158 161 152 144 142 153 223
173 194 230 270 298 307 264 186 97 83 266 254 240 155 147 127 206 178 195 164 163 164 176 178 184 188 179 192 190 186 192 199 207 195 171 165 177 158 164 171 178 166 158 168 153 154 158 163 163 167 170 161 168 170 161 166 172 177 178 167 172 169 160 167 163 152 155 161 159 160 165 158 169 174 164 165 181 184 185 199 205 168 171 184 176 178 178 168 157 157 160 173 188 171 161 181 204
103 309 289 227 268 36 122 94 186 202 215 259 299 210 77 298 163 167 154 156 154 171 173 179 185 186 174 186 186 184 186 186 191 184 174 167 175 169 166 169 177 167 160 168 153 156 158 162 164 167 177 165 170 170 167 170 175 184 181 169 175 166 160 158 164 153 158 146 150 149 162 171 172 173 186 176 187 193 184 195 196 168 181 197 176 167 166 164 162 154 169 190 180 175 182 197 187
184 200 153 185 127 90 106 95 106 355 299 283 265 24 72 77 110 148 151 154 164 170 172 174 186 184 179 174 184 182 177 178 185 181 181 163 170 174 171 167 177 159 167 164 153 157 159 165 166 170 177 167 168 172 172 171 178 185 186 173 172 164 163 162 163 157 161 154 153 159 166 187 175 184 181 189 193 190 185 185 183 176 187 182 160 171 161 171 160 162 171 168 184 202 182 182 202
225 288 200 175 172 155 162 145 155 203 228 247 249 99 208 142 151 123 118 135 139 148 166 169 180 180 179 175 181 170 166 176 181 182 186 178 158 159 162 165 177 157 169 166 157 157 162 163 168 169 175 170 169 173 173 178 176 178 187 180 172 164 167 166 164 162 159 166 176 163 171 178 188 197 178 193 193 178 185 177 183 179 184 171 171 169 173 171 184 158 174 193 183 196 194 219 222
185 226 271 90 213 100 155 182 185 178 237 288 23 72 164 113 283 80 135 131 123 141 144 152 156 172 176 172 173 166 172 174 176 177 179 175 164 145 145 161 165 180 148 185 159 162 162 162 165 170 173 173 171 170 178 179 178 174 177 183 180 172 171 164 163 159 165 172 183 173 176 180 188 212 203 193 185 174 179 183 174 183 175 177 177 186 174 179 181 162 184 174 207 186 200 219 221
197 193 217 214 153 208 210 281 208 175 158 69 111 85 67 73 53 355 12 103 126 146 143 150 164 158 158 169 162 163 171 170 169 164 166 165 151 163 166 171 151 192 144 144 155 158 157 158 163 166 171 173 171 174 177 177 179 175 178 178 178 175 177 175 174 170 171 172 183 189 180 187 184 198 215 203 172 168 173 180 177 182 181 176 178 193 189 182 179 180 180 178 198 224 196 227 224
301 192 219 299 237 197 143 238 5 189 161 157 147 133 149 138 157 215 121 86 39 70 102 99 106 123 104 131 137 152 159 125 100 99 124 156 150 153 151 169 160 172 150 143 150 159 157 160 167 165 170 174 172 174 177 176 179 179 179 179 181 179 183 187 177 182 172 169 182 190 189 186 183 194 197 183 174 156 171 175 180 183 185 183 184 198 190 178 184 191 189 190 200 198 198 224 218
210 125 347 232 174 239 186 96 259 315 225 108 168 155 146 155 144 150 132 113 107 85 73 99 112 102 106 98 48 81 67 74 88 106 117 136 153 148 109 109 98 150 144 145 156 156 158 159 166 166 173 175 171 174 174 176 177 182 182 187 184 179 175 183 187 185 180 174 180 190 187 195 198 177 193 181 175 185 173 179 183 187 188 185 189 189 194 181 188 199 206 198 210 200 194 203 219
289 168 293 7 104 192 25 178 233 155 235 98 202 26 317 339 67 145 132 133 127 123 102 97 97 112 112 110 105 69 49 31 16 36 29 24 7 14 14 139 158 152 149 148 152 155 161 160 160 162 170 174 171 172 172 177 179 180 181 184 191 182 176 180 184 179 192 190 184 184 191 183 203 199 203 187 186 181 188 185 190 185 188 195 189 190 190 189 187 197 205 206 218 209 205 199 217
245 35 18 324 267 161 143 199 194 194 187 125 135 81 283 258 302 305 132 135 131 128 122 110 108 102 103 100 94 79 68 47 80 153 170 172 185 185 200 190 138 130 134 141 146 155 160 160 162 160 157 169 173 172 174 178 174 181 175 184 193 187 189 184 186 181 188 193 196 187 190 189 187 201 210 190 184 190 185 189 189 202 193 196 197 195 191 188 190 195 212 216 219 210 205 211 205
254 115 184 235 259 240 253 286 294 268 180 144 120 143 127 179 97 324 352 72 72 60 99 97 93 90 81 77 77 72 65 48 32 27 54 45 40 64 102 81 58 47 39 36 37 35 29 21 13 18 41 74 87 111 121 112 156 173 185 183 188 192 195 190 199 188 187 189 194 193 192 190 189 198 193 206 192 187 191 185 193 203 214 198 193 199 200 186 190 196 215 228 229 198 209 212 203